Weather History for PHHI - March, 2012

Change the Weather History Date:

Saturday, March 17, 2012

  Actual Average (PHNL) Record (PHNL)
Temperature  
Mean Temperature 71 °F 75 °F  
Max Temperature 76 °F 81 °F 89 °F (1960)
Min Temperature 66 °F 68 °F 55 °F (1955)
Degree Days  
Heating Degree Days 0 0  
Month to date heating degree days 0  
Since 1 July heating degree days 0  
Cooling Degree Days 6 10  
Month to date cooling degree days 153  
Year to date cooling degree days 635  
Growing Degree Days 21 (Base 50)    
Moisture  
Dew Point 63 °F    
Average Humidity 80    
Maximum Humidity 94    
Minimum Humidity 59    
Precipitation  
Precipitation 0.09 in 0.06 in 1.29 in (1976)
Month to date precipitation 1.18  
Year to date precipitation 5.48  
Snow  
Snow 0.00 in - - ()
Month to date snowfall  
Since 1 July snowfall  
Snow Depth -    
Sea Level Pressure  
Sea Level Pressure 30.12 in    
Wind  
Wind Speed 6 mph (East)    
Max Wind Speed 13 mph    
Max Gust Speed 21 mph    
Visibility 9 miles    
Events Rain    
T = Trace of Precipitation, MM = Missing Value Source: NWS Daily Summary

Daily Weather History Graph

Daily Weather History Graph

Search for Another Location

Airport or City:

Trip Planner

Search our weather history database for the weather conditions in past years. The results will help you decide how hot, cold, wet, or windy it might be!

Date:

Astronomy

Mar. 17, 2012 Rise Set
Actual Time 6:38 AM HST 6:42 PM HST
Civil Twilight 6:16 AM HST 7:04 PM HST
Nautical Twilight 5:50 AM HST 7:30 PM HST
Astronomical Twilight 5:24 AM HST 7:56 PM HST
Moon 3:16 AM HST (3/17) 2:47 PM HST (3/17)
Length of Visible Light 12h 48m
Length of Day
12h 04m
Waning Crescent, 21% of the Moon is Illuminated
Mar 17
Waning Crescent
Mar 22
New
Mar 30
First Quarter
Apr 6
Full
Apr 13
Last Quarter

Hourly Weather History & Observations

Time (HST) Temp. Dew Point Humidity Pressure Visibility Wind Dir Wind Speed Gust Speed Precip Events Conditions
12:55 AM 68.4 °F 59.0 °F 72% 30.17 in 10.0 mi East 8.1 mph - N/A   Clear
1:55 AM 68.9 °F 59.9 °F 73% 30.15 in 10.0 mi ESE 5.8 mph - N/A   Overcast
2:26 AM 69.8 °F 60.8 °F 73% 30.14 in 10.0 mi East 11.5 mph - N/A Rain Light Rain
2:48 AM 68.0 °F 60.8 °F 78% 30.13 in 10.0 mi Variable 3.5 mph - N/A   Scattered Clouds
2:55 AM 67.1 °F 60.8 °F 80% 30.13 in 10.0 mi Variable 3.5 mph - 0.00 in   Scattered Clouds
3:55 AM 67.5 °F 59.9 °F 77% 30.12 in 10.0 mi East 6.9 mph - N/A   Clear
4:55 AM 67.6 °F 61.0 °F 79% 30.12 in 10.0 mi East 8.1 mph - N/A   Mostly Cloudy
5:55 AM 67.8 °F 59.4 °F 74% 30.14 in 10.0 mi East 9.2 mph - N/A   Scattered Clouds
6:55 AM 67.8 °F 59.0 °F 73% 30.16 in 10.0 mi ESE 3.5 mph - N/A   Scattered Clouds
7:39 AM 68.0 °F 59.0 °F 73% 30.17 in 10.0 mi East 5.8 mph - N/A   Overcast
7:55 AM 69.1 °F 59.9 °F 72% 30.17 in 10.0 mi East 5.8 mph - N/A   Overcast
8:17 AM 69.8 °F 60.8 °F 73% 30.18 in 10.0 mi SE 3.5 mph - N/A   Light Drizzle
8:26 AM 69.8 °F 60.8 °F 73% 30.18 in 10.0 mi SSE 4.6 mph - N/A   Overcast
8:29 AM 69.8 °F 60.8 °F 73% 30.18 in 10.0 mi SE 4.6 mph - N/A   Overcast
8:31 AM 69.8 °F 60.8 °F 73% 30.18 in 10.0 mi ESE 4.6 mph - N/A   Overcast
8:34 AM 69.8 °F 60.8 °F 73% 30.18 in 10.0 mi ESE 3.5 mph - N/A   Overcast
8:37 AM 69.8 °F 60.8 °F 73% 30.18 in 10.0 mi SE 3.5 mph - N/A   Overcast
8:54 AM 71.6 °F 60.8 °F 69% 30.18 in 10.0 mi East 8.1 mph - N/A   Mostly Cloudy
8:55 AM 72.0 °F 61.2 °F 69% 30.18 in 10.0 mi East 8.1 mph - 0.00 in   Mostly Cloudy
9:55 AM 73.2 °F 59.4 °F 62% 30.17 in 10.0 mi East 9.2 mph - N/A   Overcast
10:55 AM 74.7 °F 60.6 °F 61% 30.18 in 10.0 mi East 9.2 mph 18.4 mph N/A   Overcast
11:44 AM 75.2 °F 60.8 °F 61% 30.17 in 10.0 mi ESE 12.7 mph 20.7 mph N/A   Mostly Cloudy
11:46 AM 75.2 °F 60.8 °F 61% 30.16 in 10.0 mi East 11.5 mph 20.7 mph N/A   Mostly Cloudy
11:55 AM 75.7 °F 61.0 °F 60% 30.16 in 10.0 mi ESE 12.7 mph 19.6 mph N/A   Mostly Cloudy
12:55 PM 75.7 °F 60.6 °F 59% 30.13 in 10.0 mi East 12.7 mph 17.3 mph N/A   Mostly Cloudy
1:55 PM 76.3 °F 61.5 °F 60% 30.11 in 10.0 mi ESE 9.2 mph - N/A   Scattered Clouds
2:55 PM 74.1 °F 62.2 °F 66% 30.10 in 10.0 mi East 10.4 mph - N/A   Mostly Cloudy
3:12 PM 73.4 °F 62.6 °F 69% 30.10 in 10.0 mi ESE 4.6 mph - N/A   Overcast
3:13 PM 73.4 °F 62.6 °F 69% 30.10 in 10.0 mi ESE 6.9 mph - N/A   Overcast
3:15 PM 73.4 °F 62.6 °F 69% 30.10 in 10.0 mi East 8.1 mph - N/A   Overcast
3:16 PM 73.4 °F 62.6 °F 69% 30.10 in 10.0 mi East 6.9 mph - N/A   Overcast
3:55 PM 73.8 °F 61.0 °F 64% 30.09 in 10.0 mi East 6.9 mph - N/A   Mostly Cloudy
4:06 PM 73.4 °F 60.8 °F 65% 30.09 in 10.0 mi ESE 8.1 mph - N/A   Mostly Cloudy
4:50 PM 73.4 °F 62.6 °F 69% 30.09 in 10.0 mi ESE 8.1 mph - N/A   Mostly Cloudy
4:55 PM 73.2 °F 61.3 °F 66% 30.09 in 10.0 mi East 10.4 mph - N/A   Mostly Cloudy
5:27 PM 71.6 °F 60.8 °F 69% 30.09 in 10.0 mi East 8.1 mph - N/A   Overcast
5:28 PM 71.6 °F 60.8 °F 69% 30.09 in 10.0 mi East 6.9 mph - N/A   Overcast
5:29 PM 71.6 °F 60.8 °F 69% 30.10 in 10.0 mi East 6.9 mph - N/A   Overcast
5:33 PM 73.4 °F 62.6 °F 69% 30.09 in 10.0 mi East 8.1 mph - N/A   Overcast
5:34 PM 73.4 °F 62.6 °F 69% 30.09 in 10.0 mi ENE 9.2 mph - N/A   Overcast
5:38 PM 73.4 °F 62.6 °F 69% 30.09 in 10.0 mi East 6.9 mph - N/A   Overcast
5:41 PM 71.6 °F 62.6 °F 73% 30.09 in 10.0 mi East 6.9 mph - N/A   Light Drizzle
5:43 PM 71.6 °F 62.6 °F 73% 30.09 in 10.0 mi East 6.9 mph - N/A   Light Drizzle
5:46 PM 71.6 °F 62.6 °F 73% 30.10 in 10.0 mi East 6.9 mph - N/A   Light Drizzle
5:47 PM 71.6 °F 62.6 °F 73% 30.10 in 10.0 mi East 8.1 mph - N/A   Light Drizzle
5:51 PM 71.6 °F 62.6 °F 73% 30.10 in 10.0 mi East 8.1 mph - N/A   Mostly Cloudy
5:53 PM 71.6 °F 62.6 °F 73% 30.10 in 9.0 mi East 8.1 mph - N/A   Light Drizzle
5:55 PM 71.4 °F 63.3 °F 76% 30.10 in 8.0 mi East 8.1 mph - 0.00 in   Drizzle
6:02 PM 69.8 °F 64.4 °F 83% 30.10 in 7.0 mi SE 5.8 mph - N/A   Light Drizzle
6:03 PM 69.8 °F 64.4 °F 83% 30.10 in 8.0 mi Variable 3.5 mph - N/A   Light Drizzle
6:06 PM 69.8 °F 64.4 °F 83% 30.10 in 9.0 mi East 5.8 mph - N/A   Light Drizzle
6:09 PM 69.8 °F 64.4 °F 83% 30.10 in 9.0 mi Variable 4.6 mph - N/A   Light Drizzle
6:11 PM 69.8 °F 64.4 °F 83% 30.10 in 9.0 mi East 4.6 mph - N/A   Light Drizzle
6:19 PM 69.8 °F 64.4 °F 83% 30.10 in 8.0 mi East 6.9 mph - N/A   Light Drizzle
6:20 PM 69.8 °F 64.4 °F 83% 30.10 in 8.0 mi East 6.9 mph - N/A   Drizzle
6:21 PM 69.8 °F 64.4 °F 83% 30.10 in 9.0 mi East 6.9 mph - N/A   Light Drizzle
6:22 PM 69.8 °F 64.4 °F 83% 30.10 in 8.0 mi East 6.9 mph - N/A   Light Drizzle
6:24 PM 69.8 °F 64.4 °F 83% 30.10 in 7.0 mi East 6.9 mph - N/A   Light Drizzle
6:25 PM 69.8 °F 64.4 °F 83% 30.11 in 7.0 mi East 5.8 mph - N/A   Light Drizzle
6:28 PM 69.8 °F 64.4 °F 83% 30.11 in 7.0 mi East 6.9 mph - N/A   Light Drizzle
6:42 PM 68.0 °F 64.4 °F 88% 30.10 in 10.0 mi ESE 3.5 mph - N/A   Partly Cloudy
6:47 PM 68.0 °F 64.4 °F 88% 30.10 in 10.0 mi East 4.6 mph - N/A   Light Drizzle
6:55 PM 68.7 °F 64.4 °F 86% 30.11 in 6.0 mi ESE 4.6 mph - 0.01 in   Light Drizzle
7:04 PM 68.0 °F 64.4 °F 88% 30.11 in 8.0 mi ESE 3.5 mph - N/A   Light Drizzle
7:06 PM 68.0 °F 64.4 °F 88% 30.11 in 9.0 mi Calm Calm - N/A   Light Drizzle
7:07 PM 68.0 °F 64.4 °F 88% 30.11 in 10.0 mi Calm Calm - N/A   Scattered Clouds
7:25 PM 68.0 °F 64.4 °F 88% 30.12 in 8.0 mi East 8.1 mph - N/A   Light Drizzle
7:45 PM 68.0 °F 64.4 °F 88% 30.12 in 9.0 mi East 4.6 mph - N/A   Light Drizzle
7:46 PM 68.0 °F 64.4 °F 88% 30.12 in 9.0 mi East 4.6 mph - N/A   Light Drizzle
7:55 PM 67.6 °F 64.2 °F 89% 30.12 in 7.0 mi East 3.5 mph - 0.01 in   Light Drizzle
7:58 PM 68.0 °F 64.4 °F 88% 30.12 in 7.0 mi East 3.5 mph - N/A   Light Drizzle
8:04 PM 68.0 °F 64.4 °F 88% 30.12 in 10.0 mi Calm Calm - N/A   Scattered Clouds
8:16 PM 68.0 °F 64.4 °F 88% 30.12 in 10.0 mi Calm Calm - N/A   Light Drizzle
8:39 PM 68.0 °F 64.4 °F 88% 30.12 in 9.0 mi ESE 4.6 mph - N/A   Scattered Clouds
8:53 PM 68.0 °F 64.4 °F 88% 30.12 in 10.0 mi East 5.8 mph - N/A   Light Drizzle
8:55 PM 67.3 °F 64.9 °F 92% 30.12 in 9.0 mi ESE 3.5 mph - 0.01 in   Drizzle
9:03 PM 68.0 °F 64.4 °F 88% 30.12 in 9.0 mi East 4.6 mph - N/A   Partly Cloudy
9:10 PM 68.0 °F 64.4 °F 88% 30.13 in 10.0 mi East 4.6 mph - N/A   Light Drizzle
9:21 PM 68.0 °F 64.4 °F 88% 30.13 in 8.0 mi ENE 4.6 mph - N/A   Light Drizzle
9:31 PM 68.0 °F 64.4 °F 88% 30.13 in 8.0 mi ENE 3.5 mph - N/A Rain Light Rain
9:33 PM 68.0 °F 64.4 °F 88% 30.13 in 8.0 mi ENE 3.5 mph - N/A   Light Drizzle
9:35 PM 68.0 °F 64.4 °F 88% 30.13 in 8.0 mi East 3.5 mph - N/A   Light Drizzle
9:45 PM 66.2 °F 64.4 °F 94% 30.13 in 7.0 mi Calm Calm - N/A Rain Light Rain
9:47 PM 66.2 °F 64.4 °F 94% 30.13 in 7.0 mi Calm Calm - N/A Rain Light Rain
9:55 PM 66.9 °F 64.6 °F 92% 30.14 in 6.0 mi ESE 4.6 mph - 0.02 in Rain Light Rain
10:01 PM 66.2 °F 64.4 °F 94% 30.13 in 6.0 mi SE 4.6 mph - N/A Rain Light Rain
10:02 PM 66.2 °F 64.4 °F 94% 30.13 in 6.0 mi SE 4.6 mph - N/A Rain Light Rain
10:07 PM 66.2 °F 64.4 °F 94% 30.13 in 9.0 mi SE 4.6 mph - N/A   Light Drizzle
10:54 PM 66.2 °F 64.4 °F 94% 30.13 in 7.0 mi SE 3.5 mph - N/A Rain Light Rain
10:55 PM 66.4 °F 64.6 °F 94% 30.13 in 7.0 mi SE 3.5 mph - 0.03 in Rain Light Rain
11:00 PM 66.2 °F 64.4 °F 94% 30.12 in 8.0 mi SE 4.6 mph - N/A   Light Drizzle
11:11 PM 66.2 °F 64.4 °F 94% 30.12 in 10.0 mi East 6.9 mph - N/A   Light Drizzle
11:13 PM 66.2 °F 64.4 °F 94% 30.12 in 10.0 mi ESE 5.8 mph - N/A   Mostly Cloudy
11:17 PM 66.2 °F 64.4 °F 94% 30.12 in 10.0 mi ESE 4.6 mph - N/A   Light Drizzle
11:20 PM 66.2 °F 64.4 °F 94% 30.12 in 9.0 mi ESE 4.6 mph - N/A   Light Drizzle
11:30 PM 66.2 °F 64.4 °F 94% 30.11 in 6.0 mi ESE 3.5 mph - N/A   Light Drizzle
11:35 PM 66.2 °F 64.4 °F 94% 30.11 in 7.0 mi SE 3.5 mph - N/A   Light Drizzle
11:55 PM 66.2 °F 64.0 °F 93% 30.10 in 10.0 mi Variable 3.5 mph - 0.01 in   Light Drizzle